Time,TemperatureF,DewpointF,PressureIn,WindDirection,WindDirectionDegrees,WindSpeedMPH,WindSpeedGustMPH,Humidity,HourlyPrecipIn,Conditions,Clouds,dailyrainin,SoftwareType,DateUTC
2013-03-26 00:02:00,39.2,28.4,29.64,NNW,343,6.9,-999.9,65,-99.99,,,-99.99,,2013-03-26 04:02:00,
2013-03-26 00:04:00,39.2,28.4,29.64,NNW,343,6.9,-999.9,65,-99.99,,,-99.99,,2013-03-26 04:04:00,
2013-03-26 00:10:00,39.2,28.4,29.64,NNW,343,6.9,-999.9,65,-99.99,,,-99.99,,2013-03-26 04:10:00,
2013-03-26 00:16:00,39.2,28.4,29.64,North,350,4.6,-999.9,65,-99.99,,,-99.99,,2013-03-26 04:16:00,
2013-03-26 00:18:00,39.2,28.4,29.64,North,350,4.6,-999.9,65,-99.99,,,-99.99,,2013-03-26 04:18:00,
2013-03-26 00:24:00,39.2,26.6,29.64,North,3,4.6,-999.9,61,-99.99,,,-99.99,,2013-03-26 04:24:00,
2013-03-26 00:30:00,39.2,26.6,29.64,North,3,4.6,-999.9,61,-99.99,,,-99.99,,2013-03-26 04:30:00,
2013-03-26 00:36:00,39.2,26.6,29.64,North,0,5.8,-999.9,61,-99.99,,,-99.99,,2013-03-26 04:36:00,
2013-03-26 00:44:00,39.2,26.6,29.64,North,0,6.9,-999.9,61,-99.99,,,-99.99,,2013-03-26 04:44:00,
2013-03-26 00:50:00,39.2,26.6,29.64,North,0,6.9,-999.9,61,-99.99,,,-99.99,,2013-03-26 04:50:00,
2013-03-26 00:56:00,39.2,24.8,29.64,NNE,25,10.4,-999.9,56,-99.99,,,-99.99,,2013-03-26 04:56:00,
2013-03-26 01:04:00,39.2,24.8,29.65,North,5,8.1,-999.9,56,-99.99,,,-99.99,,2013-03-26 05:04:00,
2013-03-26 01:10:00,39.2,24.8,29.65,North,5,8.1,-999.9,56,-99.99,,,-99.99,,2013-03-26 05:10:00,
2013-03-26 01:16:00,39.2,24.8,29.65,NNE,22,5.8,-999.9,56,-99.99,,,-99.99,,2013-03-26 05:16:00,
2013-03-26 01:22:00,39.2,26.6,29.65,North,0,8.1,-999.9,61,-99.99,,,-99.99,,2013-03-26 05:22:00,
2013-03-26 01:28:00,39.2,26.6,29.65,North,0,8.1,-999.9,61,-99.99,,,-99.99,,2013-03-26 05:28:00,
2013-03-26 01:44:00,39.2,26.6,29.65,North,0,8.1,-999.9,61,-99.99,,,-99.99,,2013-03-26 05:44:00,
2013-03-26 01:50:00,39.2,26.6,29.65,North,0,8.1,-999.9,61,-99.99,,,-99.99,,2013-03-26 05:50:00,
2013-03-26 01:56:00,39.2,26.6,29.66,North,2,6.9,-999.9,61,-99.99,,,-99.99,,2013-03-26 05:56:00,
2013-03-26 02:14:00,39.2,28.4,29.66,North,352,6.9,-999.9,65,-99.99,,,-99.99,,2013-03-26 06:14:00,
2013-03-26 02:20:00,39.2,28.4,29.66,North,352,6.9,-999.9,65,-99.99,,,-99.99,,2013-03-26 06:20:00,
2013-03-26 02:26:00,39.2,28.4,29.67,North,350,8.1,-999.9,65,-99.99,,,-99.99,,2013-03-26 06:26:00,
2013-03-26 02:34:00,39.2,28.4,29.67,NNW,343,5.8,-999.9,65,-99.99,,,-99.99,,2013-03-26 06:34:00,
2013-03-26 02:40:00,39.2,28.4,29.67,NNW,343,5.8,-999.9,65,-99.99,,,-99.99,,2013-03-26 06:40:00,
2013-03-26 02:46:00,37.4,26.6,29.67,NNW,340,5.8,-999.9,65,-99.99,,,-99.99,,2013-03-26 06:46:00,
2013-03-26 02:54:00,37.4,26.6,29.67,NNW,344,5.8,-999.9,65,-99.99,,,-99.99,,2013-03-26 06:54:00,
2013-03-26 03:00:00,37.4,26.6,29.67,NNW,344,5.8,-999.9,65,-99.99,,,-99.99,,2013-03-26 07:00:00,
2013-03-26 03:06:00,37.4,26.6,29.67,North,354,6.9,-999.9,65,-99.99,,,-99.99,,2013-03-26 07:06:00,
2013-03-26 03:12:00,37.4,26.6,29.67,NNW,343,6.9,-999.9,65,-99.99,,,-99.99,,2013-03-26 07:12:00,
2013-03-26 03:18:00,37.4,26.6,29.67,NNW,343,6.9,-999.9,65,-99.99,,,-99.99,,2013-03-26 07:18:00,
2013-03-26 03:24:00,37.4,26.6,29.67,NNW,348,8.1,-999.9,65,-99.99,,,-99.99,,2013-03-26 07:24:00,
2013-03-26 03:30:00,37.4,26.6,29.67,NNW,348,8.1,-999.9,65,-99.99,,,-99.99,,2013-03-26 07:30:00,
2013-03-26 03:36:00,37.4,26.6,29.68,North,350,6.9,-999.9,65,-99.99,,,-99.99,,2013-03-26 07:36:00,
2013-03-26 03:44:00,37.4,26.6,29.68,North,0,4.6,-999.9,65,-99.99,,,-99.99,,2013-03-26 07:44:00,
2013-03-26 03:50:00,37.4,26.6,29.68,North,0,4.6,-999.9,65,-99.99,,,-99.99,,2013-03-26 07:50:00,
2013-03-26 03:56:00,37.4,26.6,29.68,NNW,340,6.9,-999.9,65,-99.99,,,-99.99,,2013-03-26 07:56:00,
2013-03-26 04:02:00,37.4,26.6,29.68,North,355,5.8,-999.9,65,-99.99,,,-99.99,,2013-03-26 08:02:00,
2013-03-26 04:08:00,37.4,26.6,29.68,North,355,5.8,-999.9,65,-99.99,,,-99.99,,2013-03-26 08:08:00,
2013-03-26 04:14:00,37.4,26.6,29.69,NNW,345,4.6,-999.9,65,-99.99,,,-99.99,,2013-03-26 08:14:00,
2013-03-26 04:20:00,37.4,26.6,29.69,NNW,345,4.6,-999.9,65,-99.99,,,-99.99,,2013-03-26 08:20:00,
2013-03-26 04:26:00,37.4,26.6,29.69,NNW,337,5.8,-999.9,65,-99.99,,,-99.99,,2013-03-26 08:26:00,
2013-03-26 04:32:00,37.4,26.6,29.69,NW,320,4.6,-999.9,65,-99.99,,,-99.99,,2013-03-26 08:32:00,
2013-03-26 04:38:00,37.4,26.6,29.69,NW,320,4.6,-999.9,65,-99.99,,,-99.99,,2013-03-26 08:38:00,
2013-03-26 04:44:00,37.4,26.6,29.70,NW,319,3.5,-999.9,65,-99.99,,,-99.99,,2013-03-26 08:44:00,
2013-03-26 04:50:00,37.4,26.6,29.70,NW,319,3.5,-999.9,65,-99.99,,,-99.99,,2013-03-26 08:50:00,
2013-03-26 04:56:00,37.4,26.6,29.70,NW,320,4.6,-999.9,65,-99.99,,,-99.99,,2013-03-26 08:56:00,
2013-03-26 05:04:00,37.4,26.6,29.70,NW,317,6.9,-999.9,65,-99.99,,,-99.99,,2013-03-26 09:04:00,
2013-03-26 05:10:00,37.4,26.6,29.70,NW,317,6.9,-999.9,65,-99.99,,,-99.99,,2013-03-26 09:10:00,
2013-03-26 05:16:00,37.4,26.6,29.70,NW,320,3.5,-999.9,65,-99.99,,,-99.99,,2013-03-26 09:16:00,
2013-03-26 05:24:00,37.4,26.6,29.70,NW,305,2.3,-999.9,65,-99.99,,,-99.99,,2013-03-26 09:24:00,
2013-03-26 05:30:00,37.4,26.6,29.70,NW,305,2.3,-999.9,65,-99.99,,,-99.99,,2013-03-26 09:30:00,
2013-03-26 05:36:00,37.4,26.6,29.71,NW,321,4.6,-999.9,65,-99.99,,,-99.99,,2013-03-26 09:36:00,
2013-03-26 05:42:00,37.4,26.6,29.71,WNW,302,0.0,-999.9,65,-99.99,,,-99.99,,2013-03-26 09:42:00,
2013-03-26 05:48:00,37.4,26.6,29.71,WNW,302,0.0,-999.9,65,-99.99,,,-99.99,,2013-03-26 09:48:00,
2013-03-26 05:56:00,37.4,26.6,29.72,NW,315,2.3,-999.9,65,-99.99,,,-99.99,,2013-03-26 09:56:00,
2013-03-26 06:02:00,37.4,26.6,29.72,North,0,0.0,-999.9,65,-99.99,,,-99.99,,2013-03-26 10:02:00,
2013-03-26 06:08:00,37.4,26.6,29.72,North,0,0.0,-999.9,65,-99.99,,,-99.99,,2013-03-26 10:08:00,
2013-03-26 06:16:00,37.4,28.4,29.72,North,0,0.0,-999.9,70,-99.99,,,-99.99,,2013-03-26 10:16:00,
2013-03-26 06:22:00,35.6,26.6,29.72,North,0,0.0,-999.9,70,-99.99,,,-99.99,,2013-03-26 10:22:00,
2013-03-26 06:28:00,35.6,26.6,29.72,North,0,0.0,-999.9,70,-99.99,,,-99.99,,2013-03-26 10:28:00,
2013-03-26 06:34:00,35.6,26.6,29.73,North,0,0.0,-999.9,70,-99.99,,,-99.99,,2013-03-26 10:34:00,
2013-03-26 06:40:00,35.6,26.6,29.73,North,0,0.0,-999.9,70,-99.99,,,-99.99,,2013-03-26 10:40:00,
2013-03-26 06:46:00,35.6,26.6,29.73,WNW,283,3.5,-999.9,70,-99.99,,,-99.99,,2013-03-26 10:46:00,
2013-03-26 06:54:00,37.4,26.6,29.73,WNW,293,2.3,-999.9,65,-99.99,,,-99.99,,2013-03-26 10:54:00,
2013-03-26 07:00:00,37.4,26.6,29.73,WNW,293,2.3,-999.9,65,-99.99,,,-99.99,,2013-03-26 11:00:00,
2013-03-26 07:06:00,37.4,26.6,29.74,NW,308,1.2,-999.9,65,-99.99,,,-99.99,,2013-03-26 11:06:00,
2013-03-26 07:14:00,37.4,26.6,29.74,North,0,0.0,-999.9,65,-99.99,,,-99.99,,2013-03-26 11:14:00,
2013-03-26 07:20:00,37.4,26.6,29.74,North,0,0.0,-999.9,65,-99.99,,,-99.99,,2013-03-26 11:20:00,
2013-03-26 07:26:00,37.4,26.6,29.75,NW,325,0.0,-999.9,65,-99.99,,,-99.99,,2013-03-26 11:26:00,
2013-03-26 07:34:00,37.4,26.6,29.75,North,0,0.0,-999.9,65,-99.99,,,-99.99,,2013-03-26 11:34:00,
2013-03-26 07:40:00,37.4,26.6,29.75,North,0,0.0,-999.9,65,-99.99,,,-99.99,,2013-03-26 11:40:00,
2013-03-26 07:46:00,37.4,26.6,29.75,North,0,0.0,-999.9,65,-99.99,,,-99.99,,2013-03-26 11:46:00,
2013-03-26 07:52:00,37.4,26.6,29.76,North,0,0.0,-999.9,65,-99.99,,,-99.99,,2013-03-26 11:52:00,
2013-03-26 07:58:00,37.4,26.6,29.76,North,0,0.0,-999.9,65,-99.99,,,-99.99,,2013-03-26 11:58:00,
2013-03-26 08:04:00,37.4,26.6,29.76,North,0,0.0,-999.9,65,-99.99,,,-99.99,,2013-03-26 12:04:00,
2013-03-26 08:10:00,37.4,26.6,29.76,North,0,0.0,-999.9,65,-99.99,,,-99.99,,2013-03-26 12:10:00,
2013-03-26 08:16:00,39.2,28.4,29.76,North,0,0.0,-999.9,65,-99.99,,,-99.99,,2013-03-26 12:16:00,
2013-03-26 08:22:00,39.2,28.4,29.77,North,0,0.0,-999.9,65,-99.99,,,-99.99,,2013-03-26 12:22:00,
2013-03-26 08:28:00,39.2,28.4,29.77,North,0,0.0,-999.9,65,-99.99,,,-99.99,,2013-03-26 12:28:00,
2013-03-26 08:34:00,39.2,26.6,29.77,West,267,3.5,-999.9,61,-99.99,,,-99.99,,2013-03-26 12:34:00,
2013-03-26 08:40:00,39.2,26.6,29.77,West,267,3.5,-999.9,61,-99.99,,,-99.99,,2013-03-26 12:40:00,
2013-03-26 08:46:00,39.2,26.6,29.77,North,0,0.0,-999.9,61,-99.99,,,-99.99,,2013-03-26 12:46:00,
2013-03-26 08:56:00,39.2,26.6,29.77,SSW,208,0.0,-999.9,61,-99.99,,,-99.99,,2013-03-26 12:56:00,
2013-03-26 09:04:00,41.0,26.6,29.77,West,273,4.6,-999.9,57,-99.99,,,-99.99,,2013-03-26 13:04:00,
2013-03-26 09:10:00,41.0,26.6,29.77,West,273,4.6,-999.9,57,-99.99,,,-99.99,,2013-03-26 13:10:00,
2013-03-26 09:16:00,41.0,26.6,29.76,NNW,328,5.8,-999.9,57,-99.99,,,-99.99,,2013-03-26 13:16:00,
2013-03-26 09:22:00,41.0,26.6,29.76,NW,307,8.1,-999.9,57,-99.99,,,-99.99,,2013-03-26 13:22:00,
2013-03-26 09:28:00,41.0,26.6,29.76,NW,307,8.1,-999.9,57,-99.99,,,-99.99,,2013-03-26 13:28:00,
2013-03-26 09:34:00,41.0,26.6,29.76,West,277,6.9,-999.9,57,-99.99,,,-99.99,,2013-03-26 13:34:00,
2013-03-26 09:40:00,41.0,26.6,29.76,West,277,6.9,-999.9,57,-99.99,,,-99.99,,2013-03-26 13:40:00,
2013-03-26 09:46:00,41.0,26.6,29.76,WNW,289,4.6,-999.9,57,-99.99,,,-99.99,,2013-03-26 13:46:00,
2013-03-26 09:54:00,41.0,26.6,29.76,NW,307,6.9,-999.9,57,-99.99,,,-99.99,,2013-03-26 13:54:00,
2013-03-26 10:00:00,41.0,26.6,29.76,NW,307,6.9,-999.9,57,-99.99,,,-99.99,,2013-03-26 14:00:00,
2013-03-26 10:06:00,42.8,26.6,29.77,NNW,345,17.3,-999.9,53,-99.99,,,-99.99,,2013-03-26 14:06:00,
2013-03-26 10:14:00,42.8,26.6,29.77,NNE,30,8.1,-999.9,53,-99.99,,,-99.99,,2013-03-26 14:14:00,
2013-03-26 10:20:00,42.8,26.6,29.77,NNE,30,8.1,-999.9,53,-99.99,,,-99.99,,2013-03-26 14:20:00,
2013-03-26 10:26:00,44.6,26.6,29.76,NNW,346,3.5,-999.9,49,-99.99,,,-99.99,,2013-03-26 14:26:00,
2013-03-26 10:32:00,44.6,26.6,29.76,North,349,11.5,-999.9,49,-99.99,,,-99.99,,2013-03-26 14:32:00,
2013-03-26 10:38:00,44.6,26.6,29.76,North,349,11.5,-999.9,49,-99.99,,,-99.99,,2013-03-26 14:38:00,
2013-03-26 10:44:00,44.6,26.6,29.76,North,1,20.7,-999.9,49,-99.99,,,-99.99,,2013-03-26 14:44:00,
2013-03-26 10:50:00,44.6,26.6,29.76,North,1,20.7,-999.9,49,-99.99,,,-99.99,,2013-03-26 14:50:00,
2013-03-26 10:56:00,44.6,24.8,29.76,NNW,344,13.8,-999.9,46,-99.99,,,-99.99,,2013-03-26 14:56:00,
2013-03-26 11:04:00,46.4,26.6,29.76,North,353,12.7,-999.9,46,-99.99,,,-99.99,,2013-03-26 15:04:00,
2013-03-26 11:10:00,46.4,26.6,29.76,North,353,12.7,-999.9,46,-99.99,,,-99.99,,2013-03-26 15:10:00,
2013-03-26 11:16:00,46.4,26.6,29.76,NNW,344,10.4,-999.9,46,-99.99,,,-99.99,,2013-03-26 15:16:00,
2013-03-26 11:22:00,46.4,24.8,29.75,NNW,343,23.0,-999.9,43,-99.99,,,-99.99,,2013-03-26 15:22:00,
2013-03-26 11:28:00,46.4,24.8,29.75,NNW,343,23.0,-999.9,43,-99.99,,,-99.99,,2013-03-26 15:28:00,
2013-03-26 11:34:00,46.4,24.8,29.76,North,359,21.9,-999.9,43,-99.99,,,-99.99,,2013-03-26 15:34:00,
2013-03-26 11:40:00,46.4,24.8,29.76,North,359,21.9,-999.9,43,-99.99,,,-99.99,,2013-03-26 15:40:00,
2013-03-26 11:46:00,46.4,24.8,29.76,NNW,342,20.7,-999.9,43,-99.99,,,-99.99,,2013-03-26 15:46:00,
2013-03-26 11:54:00,46.4,24.8,29.76,North,8,15.0,-999.9,43,-99.99,,,-99.99,,2013-03-26 15:54:00,
2013-03-26 12:00:00,46.4,24.8,29.76,North,8,15.0,-999.9,43,-99.99,,,-99.99,,2013-03-26 16:00:00,
2013-03-26 12:06:00,48.2,24.8,29.76,NNW,342,18.4,-999.9,40,-99.99,,,-99.99,,2013-03-26 16:06:00,
2013-03-26 12:12:00,48.2,24.8,29.76,NNW,334,16.1,-999.9,40,-99.99,,,-99.99,,2013-03-26 16:12:00,
2013-03-26 12:18:00,48.2,24.8,29.76,NNW,334,16.1,-999.9,40,-99.99,,,-99.99,,2013-03-26 16:18:00,
2013-03-26 12:24:00,48.2,24.8,29.75,North,353,23.0,-999.9,40,-99.99,,,-99.99,,2013-03-26 16:24:00,
2013-03-26 12:30:00,48.2,24.8,29.75,North,353,23.0,-999.9,40,-99.99,,,-99.99,,2013-03-26 16:30:00,
2013-03-26 12:36:00,48.2,24.8,29.75,North,351,16.1,-999.9,40,-99.99,,,-99.99,,2013-03-26 16:36:00,
2013-03-26 12:42:00,50.0,24.8,29.75,NNW,331,13.8,-999.9,37,-99.99,,,-99.99,,2013-03-26 16:42:00,
2013-03-26 12:48:00,50.0,24.8,29.75,NNW,331,13.8,-999.9,37,-99.99,,,-99.99,,2013-03-26 16:48:00,
2013-03-26 12:54:00,48.2,23.0,29.75,NW,326,11.5,-999.9,37,-99.99,,,-99.99,,2013-03-26 16:54:00,
2013-03-26 13:00:00,48.2,23.0,29.75,NW,326,11.5,-999.9,37,-99.99,,,-99.99,,2013-03-26 17:00:00,
2013-03-26 13:06:00,48.2,23.0,29.75,NW,323,9.2,-999.9,37,-99.99,,,-99.99,,2013-03-26 17:06:00,
2013-03-26 13:12:00,48.2,24.8,29.75,NNW,340,17.3,-999.9,40,-99.99,,,-99.99,,2013-03-26 17:12:00,
2013-03-26 13:18:00,48.2,24.8,29.75,NNW,340,17.3,-999.9,40,-99.99,,,-99.99,,2013-03-26 17:18:00,
2013-03-26 13:24:00,48.2,23.0,29.75,NNW,330,15.0,-999.9,37,-99.99,,,-99.99,,2013-03-26 17:24:00,
2013-03-26 13:30:00,48.2,23.0,29.75,NNW,330,15.0,-999.9,37,-99.99,,,-99.99,,2013-03-26 17:30:00,
2013-03-26 13:36:00,48.2,23.0,29.75,North,356,19.6,-999.9,37,-99.99,,,-99.99,,2013-03-26 17:36:00,
2013-03-26 13:42:00,48.2,23.0,29.75,NNE,19,12.7,-999.9,37,-99.99,,,-99.99,,2013-03-26 17:42:00,
2013-03-26 13:48:00,48.2,23.0,29.75,NNE,19,12.7,-999.9,37,-99.99,,,-99.99,,2013-03-26 17:48:00,
2013-03-26 13:54:00,48.2,23.0,29.75,NNE,17,11.5,-999.9,37,-99.99,,,-99.99,,2013-03-26 17:54:00,
2013-03-26 14:00:00,48.2,23.0,29.75,NNE,17,11.5,-999.9,37,-99.99,,,-99.99,,2013-03-26 18:00:00,
2013-03-26 14:06:00,48.2,23.0,29.75,NNE,17,11.5,-999.9,37,-99.99,,,-99.99,,2013-03-26 18:06:00,
2013-03-26 14:14:00,48.2,23.0,29.75,NNE,17,11.5,-999.9,37,-99.99,,,-99.99,,2013-03-26 18:14:00,
2013-03-26 14:20:00,48.2,23.0,29.75,NNE,17,11.5,-999.9,37,-99.99,,,-99.99,,2013-03-26 18:20:00,
2013-03-26 14:26:00,48.2,23.0,29.75,NNE,17,11.5,-999.9,37,-99.99,,,-99.99,,2013-03-26 18:26:00,
2013-03-26 14:34:00,48.2,23.0,29.75,NNE,17,11.5,-999.9,37,-99.99,,,-99.99,,2013-03-26 18:34:00,
2013-03-26 14:40:00,48.2,23.0,29.75,NNE,17,11.5,-999.9,37,-99.99,,,-99.99,,2013-03-26 18:40:00,
2013-03-26 14:46:00,48.2,23.0,29.75,NNE,17,11.5,-999.9,37,-99.99,,,-99.99,,2013-03-26 18:46:00,
2013-03-26 14:54:00,48.2,23.0,29.75,NNE,17,11.5,-999.9,37,-99.99,,,-99.99,,2013-03-26 18:54:00,
2013-03-26 15:00:00,48.2,23.0,29.75,NNE,17,11.5,-999.9,37,-99.99,,,-99.99,,2013-03-26 19:00:00,
2013-03-26 15:06:00,48.2,23.0,29.75,NNE,17,11.5,-999.9,37,-99.99,,,-99.99,,2013-03-26 19:06:00,
2013-03-26 15:14:00,48.2,23.0,29.75,NNE,17,11.5,-999.9,37,-99.99,,,-99.99,,2013-03-26 19:14:00,
2013-03-26 15:20:00,48.2,23.0,29.75,NNE,17,11.5,-999.9,37,-99.99,,,-99.99,,2013-03-26 19:20:00,
2013-03-26 15:26:00,48.2,23.0,29.75,NNE,17,11.5,-999.9,37,-99.99,,,-99.99,,2013-03-26 19:26:00,
2013-03-26 15:32:00,48.2,23.0,29.75,NNE,17,11.5,-999.9,37,-99.99,,,-99.99,,2013-03-26 19:32:00,
2013-03-26 15:38:00,48.2,23.0,29.75,NNE,17,11.5,-999.9,37,-99.99,,,-99.99,,2013-03-26 19:38:00,
2013-03-26 15:44:00,48.2,23.0,29.75,NNE,17,11.5,-999.9,37,-99.99,,,-99.99,,2013-03-26 19:44:00,
2013-03-26 15:50:00,48.2,23.0,29.75,NNE,17,11.5,-999.9,37,-99.99,,,-99.99,,2013-03-26 19:50:00,
2013-03-26 16:44:00,48.2,23.0,29.75,NNE,17,11.5,-999.9,37,-99.99,,,-99.99,,2013-03-26 20:44:00,
2013-03-26 16:50:00,48.2,23.0,29.75,NNE,17,11.5,-999.9,37,-99.99,,,-99.99,,2013-03-26 20:50:00,
2013-03-26 16:56:00,48.2,23.0,29.75,NNE,17,11.5,-999.9,37,-99.99,,,-99.99,,2013-03-26 20:56:00,
2013-03-26 17:02:00,48.2,23.0,29.75,NNE,17,11.5,-999.9,37,-99.99,,,-99.99,,2013-03-26 21:02:00,
2013-03-26 17:08:00,48.2,23.0,29.75,NNE,17,11.5,-999.9,37,-99.99,,,-99.99,,2013-03-26 21:08:00,
2013-03-26 17:14:00,48.2,23.0,29.75,NNE,17,11.5,-999.9,37,-99.99,,,-99.99,,2013-03-26 21:14:00,
2013-03-26 17:22:00,48.2,23.0,29.75,NNE,17,11.5,-999.9,37,-99.99,,,-99.99,,2013-03-26 21:22:00,
2013-03-26 17:28:00,48.2,23.0,29.75,NNE,17,11.5,-999.9,37,-99.99,,,-99.99,,2013-03-26 21:28:00,
2013-03-26 17:34:00,48.2,23.0,29.75,NNE,17,11.5,-999.9,37,-99.99,,,-99.99,,2013-03-26 21:34:00,
2013-03-26 17:40:00,48.2,23.0,29.75,NNE,17,11.5,-999.9,37,-99.99,,,-99.99,,2013-03-26 21:40:00,
2013-03-26 17:46:00,48.2,23.0,29.75,NNE,17,11.5,-999.9,37,-99.99,,,-99.99,,2013-03-26 21:46:00,
2013-03-26 17:52:00,48.2,23.0,29.75,NNE,17,11.5,-999.9,37,-99.99,,,-99.99,,2013-03-26 21:52:00,
2013-03-26 17:58:00,48.2,23.0,29.75,NNE,17,11.5,-999.9,37,-99.99,,,-99.99,,2013-03-26 21:58:00,
2013-03-26 18:04:00,48.2,23.0,29.75,NNE,17,11.5,-999.9,37,-99.99,,,-99.99,,2013-03-26 22:04:00,
2013-03-26 18:10:00,48.2,23.0,29.75,NNE,17,11.5,-999.9,37,-99.99,,,-99.99,,2013-03-26 22:10:00,
2013-03-26 18:16:00,48.2,23.0,29.75,NNE,17,11.5,-999.9,37,-99.99,,,-99.99,,2013-03-26 22:16:00,
2013-03-26 18:22:00,48.2,23.0,29.75,NNE,17,11.5,-999.9,37,-99.99,,,-99.99,,2013-03-26 22:22:00,
2013-03-26 18:28:00,48.2,23.0,29.75,NNE,17,11.5,-999.9,37,-99.99,,,-99.99,,2013-03-26 22:28:00,
2013-03-26 18:34:00,48.2,23.0,29.75,NNE,17,11.5,-999.9,37,-99.99,,,-99.99,,2013-03-26 22:34:00,
2013-03-26 18:40:00,48.2,23.0,29.75,NNE,17,11.5,-999.9,37,-99.99,,,-99.99,,2013-03-26 22:40:00,
2013-03-26 18:46:00,48.2,23.0,29.75,NNE,17,11.5,-999.9,37,-99.99,,,-99.99,,2013-03-26 22:46:00,
2013-03-26 18:52:00,48.2,23.0,29.75,NNE,17,11.5,-999.9,37,-99.99,,,-99.99,,2013-03-26 22:52:00,
2013-03-26 18:58:00,48.2,23.0,29.75,NNE,17,11.5,-999.9,37,-99.99,,,-99.99,,2013-03-26 22:58:00,
2013-03-26 19:04:00,48.2,23.0,29.75,NNE,17,11.5,-999.9,37,-99.99,,,-99.99,,2013-03-26 23:04:00,
2013-03-26 19:10:00,48.2,23.0,29.75,NNE,17,11.5,-999.9,37,-99.99,,,-99.99,,2013-03-26 23:10:00,
2013-03-26 19:16:00,48.2,23.0,29.75,NNE,17,11.5,-999.9,37,-99.99,,,-99.99,,2013-03-26 23:16:00,
2013-03-26 19:24:00,46.4,24.8,29.83,NNW,329,5.8,-999.9,43,-99.99,,,-99.99,,2013-03-26 23:24:00,
2013-03-26 19:30:00,46.4,24.8,29.83,NNW,329,5.8,-999.9,43,-99.99,,,-99.99,,2013-03-26 23:30:00,
2013-03-26 19:36:00,46.4,24.8,29.83,NNW,331,10.4,-999.9,43,-99.99,,,-99.99,,2013-03-26 23:36:00,
2013-03-26 19:44:00,46.4,24.8,29.83,NW,310,9.2,-999.9,43,-99.99,,,-99.99,,2013-03-26 23:44:00,
2013-03-26 19:50:00,46.4,24.8,29.83,NW,310,9.2,-999.9,43,-99.99,,,-99.99,,2013-03-26 23:50:00,
2013-03-26 20:44:00,44.6,24.8,29.86,NW,317,6.9,-999.9,46,-99.99,,,-99.99,,2013-03-27 00:44:00,
2013-03-26 20:50:00,44.6,24.8,29.86,NW,317,6.9,-999.9,46,-99.99,,,-99.99,,2013-03-27 00:50:00,
2013-03-26 20:56:00,42.8,24.8,29.87,NW,316,6.9,-999.9,49,-99.99,,,-99.99,,2013-03-27 00:56:00,
2013-03-26 21:04:00,42.8,24.8,29.87,NW,315,5.8,-999.9,49,-99.99,,,-99.99,,2013-03-27 01:04:00,
2013-03-26 21:10:00,42.8,24.8,29.87,NW,315,5.8,-999.9,49,-99.99,,,-99.99,,2013-03-27 01:10:00,
2013-03-26 21:16:00,42.8,24.8,29.88,NNW,328,5.8,-999.9,49,-99.99,,,-99.99,,2013-03-27 01:16:00,
2013-03-26 21:24:00,42.8,24.8,29.88,NNW,332,8.1,-999.9,49,-99.99,,,-99.99,,2013-03-27 01:24:00,
2013-03-26 21:30:00,42.8,24.8,29.88,NNW,332,8.1,-999.9,49,-99.99,,,-99.99,,2013-03-27 01:30:00,
2013-03-26 21:36:00,42.8,24.8,29.88,NW,312,3.5,-999.9,49,-99.99,,,-99.99,,2013-03-27 01:36:00,
2013-03-26 21:42:00,42.8,24.8,29.89,NW,313,6.9,-999.9,49,-99.99,,,-99.99,,2013-03-27 01:42:00,
2013-03-26 21:48:00,42.8,24.8,29.89,NW,313,6.9,-999.9,49,-99.99,,,-99.99,,2013-03-27 01:48:00,
2013-03-26 21:54:00,42.8,24.8,29.89,NNW,329,9.2,-999.9,49,-99.99,,,-99.99,,2013-03-27 01:54:00,
2013-03-26 22:00:00,42.8,24.8,29.89,NNW,329,9.2,-999.9,49,-99.99,,,-99.99,,2013-03-27 02:00:00,
2013-03-26 22:06:00,42.8,24.8,29.89,NNW,330,10.4,-999.9,49,-99.99,,,-99.99,,2013-03-27 02:06:00,
2013-03-26 22:14:00,42.8,24.8,29.90,NNW,327,4.6,-999.9,49,-99.99,,,-99.99,,2013-03-27 02:14:00,
2013-03-26 22:20:00,42.8,24.8,29.90,NNW,327,4.6,-999.9,49,-99.99,,,-99.99,,2013-03-27 02:20:00,
2013-03-26 22:26:00,41.0,23.0,29.90,NNW,327,6.9,-999.9,49,-99.99,,,-99.99,,2013-03-27 02:26:00,
2013-03-26 22:32:00,41.0,23.0,29.90,NNW,328,5.8,-999.9,49,-99.99,,,-99.99,,2013-03-27 02:32:00,
2013-03-26 22:38:00,41.0,23.0,29.90,NNW,328,5.8,-999.9,49,-99.99,,,-99.99,,2013-03-27 02:38:00,
2013-03-26 22:44:00,41.0,24.8,29.90,NW,305,2.3,-999.9,53,-99.99,,,-99.99,,2013-03-27 02:44:00,
2013-03-26 22:50:00,41.0,24.8,29.90,NW,305,2.3,-999.9,53,-99.99,,,-99.99,,2013-03-27 02:50:00,
2013-03-26 22:56:00,41.0,24.8,29.90,NW,316,5.8,-999.9,53,-99.99,,,-99.99,,2013-03-27 02:56:00,
2013-03-26 23:04:00,41.0,24.8,29.90,NW,305,4.6,-999.9,53,-99.99,,,-99.99,,2013-03-27 03:04:00,
2013-03-26 23:10:00,41.0,24.8,29.90,NW,305,4.6,-999.9,53,-99.99,,,-99.99,,2013-03-27 03:10:00,
2013-03-26 23:16:00,41.0,24.8,29.90,WNW,300,3.5,-999.9,53,-99.99,,,-99.99,,2013-03-27 03:16:00,
2013-03-26 23:22:00,39.2,24.8,29.90,North,0,0.0,-999.9,56,-99.99,,,-99.99,,2013-03-27 03:22:00,
2013-03-26 23:28:00,39.2,24.8,29.90,North,0,0.0,-999.9,56,-99.99,,,-99.99,,2013-03-27 03:28:00,
2013-03-26 23:34:00,39.2,24.8,29.90,NW,319,3.5,-999.9,56,-99.99,,,-99.99,,2013-03-27 03:34:00,
2013-03-26 23:40:00,39.2,24.8,29.90,NW,319,3.5,-999.9,56,-99.99,,,-99.99,,2013-03-27 03:40:00,
2013-03-26 23:46:00,39.2,24.8,29.90,WNW,293,1.2,-999.9,56,-99.99,,,-99.99,,2013-03-27 03:46:00,
2013-03-26 23:54:00,39.2,24.8,29.90,NW,310,2.3,-999.9,56,-99.99,,,-99.99,,2013-03-27 03:54:00,